When you browse on this site, cookies collect data to enhance your experience and personalize the content and advertising you see.
Visit our Privacy Policy to learn more. By continuing to use the site, you agree to this use of cookies and data.
  • In France
  • List of Countries
  • For 7 days
  • Water Temperature
  • Satellite Maps
  • Weather Map
  • Weather Widgets
  • user-avatar
    Login

    Hourly Weather Sankt Polten

    Today, 26 April, Friday

    Time Temperature Precipitation Wind Pressure Humidity
    00:00 +15°C° 0 mm 2 mps 732 mmHg 64%
    01:00 +14°C° 0 mm 2 mps 732 mmHg 65%
    02:00 +14°C° 0 mm 2 mps 732 mmHg 67%
    03:00 +14°C° 0 mm 2 mps 732 mmHg 68%
    04:00 +13°C° 0 mm 1 mps 731 mmHg 70%
    05:00 +15°C° 0 mm 1 mps 731 mmHg 67%
    06:00 +16°C° 0 mm 1 mps 731 mmHg 65%
    07:00 +19°C° 0 mm 1 mps 731 mmHg 62%
    08:00 +20°C° 0 mm 2 mps 731 mmHg 55%
    09:00 +23°C° 0 mm 2 mps 731 mmHg 48%
    10:00 +25°C° 0 mm 2 mps 731 mmHg 41%
    11:00 +25°C° 0 mm 3 mps 731 mmHg 40%
    12:00 +26°C° 0 mm 3 mps 730 mmHg 40%
    13:00 +26°C° 0 mm 4 mps 730 mmHg 39%
    14:00 +26°C° 0 mm 3 mps 730 mmHg 41%
    15:00 +25°C° 0 mm 3 mps 730 mmHg 44%
    16:00 +25°C° 0 mm 3 mps 730 mmHg 46%
    17:00 +19°C° 0 mm 4 mps 730 mmHg 57%
    18:00 +14°C° 0 mm 6 mps 731 mmHg 68%
    19:00 +9°C° 0 mm 7 mps 731 mmHg 80%
    20:00 +8°C° 0 mm 7 mps 732 mmHg 79%
    21:00 +8°C° 0 mm 6 mps 733 mmHg 78%
    22:00 +8°C° 0 mm 6 mps 734 mmHg 77%
    23:00 +8°C° 0 mm 6 mps 734 mmHg 76%

    Tomorrow, 27 April, Saturday

    Time Temperature Precipitation Wind Pressure Humidity
    00:00 +8°C° 0 mm 6 mps 735 mmHg 75%
    01:00 +8°C° 0 mm 6 mps 735 mmHg 75%
    02:00 +8°C° 0 mm 6 mps 735 mmHg 76%
    03:00 +8°C° 0 mm 5 mps 735 mmHg 77%
    04:00 +7°C° 0 mm 5 mps 735 mmHg 79%
    05:00 +8°C° 0 mm 5 mps 735 mmHg 78%
    06:00 +8°C° 0 mm 6 mps 736 mmHg 77%
    07:00 +8°C° 0 mm 6 mps 736 mmHg 77%
    08:00 +9°C° 0 mm 6 mps 736 mmHg 73%
    09:00 +10°C° 0 mm 6 mps 736 mmHg 70%
    10:00 +11°C° 0 mm 6 mps 736 mmHg 66%
    11:00 +11°C° 0 mm 6 mps 736 mmHg 64%
    12:00 +13°C° 0 mm 5 mps 736 mmHg 62%
    13:00 +14°C° 0 mm 5 mps 736 mmHg 60%
    14:00 +14°C° 0 mm 5 mps 735 mmHg 59%
    15:00 +15°C° 0 mm 5 mps 735 mmHg 57%
    16:00 +15°C° 0 mm 5 mps 735 mmHg 56%
    17:00 +14°C° 0 mm 4 mps 735 mmHg 61%
    18:00 +12°C° 0 mm 4 mps 735 mmHg 67%
    19:00 +11°C° 0 mm 3 mps 736 mmHg 72%
    20:00 +10°C° 0 mm 3 mps 736 mmHg 77%
    21:00 +10°C° 0 mm 3 mps 737 mmHg 82%
    22:00 +8°C° 0 mm 4 mps 737 mmHg 87%
    23:00 +9°C° 0 mm 3 mps 737 mmHg 89%

    Day after tomorrow, 28 April, Sunday

    Time Temperature Precipitation Wind Pressure Humidity
    00:00 +8°C° 0 mm 3 mps 737 mmHg 90%
    01:00 +8°C° 0 mm 3 mps 737 mmHg 92%
    02:00 +7°C° 0 mm 3 mps 738 mmHg 92%
    03:00 +6°C° 0 mm 4 mps 738 mmHg 91%
    04:00 +5°C° 0 mm 4 mps 738 mmHg 90%
    05:00 +6°C° 0 mm 4 mps 738 mmHg 84%
    06:00 +6°C° 0 mm 4 mps 738 mmHg 78%
    07:00 +7°C° 0 mm 4 mps 738 mmHg 72%
    08:00 +8°C° 0 mm 4 mps 738 mmHg 66%
    09:00 +10°C° 0 mm 4 mps 738 mmHg 60%
    10:00 +11°C° 0 mm 4 mps 738 mmHg 55%
    11:00 +12°C° 0 mm 4 mps 738 mmHg 52%
    12:00 +12°C° 0 mm 4 mps 738 mmHg 50%
    13:00 +13°C° 0 mm 4 mps 738 mmHg 47%
    14:00 +13°C° 0 mm 4 mps 738 mmHg 47%
    15:00 +13°C° 0 mm 4 mps 737 mmHg 47%
    16:00 +13°C° 0 mm 3 mps 737 mmHg 47%
    17:00 +11°C° 0 mm 3 mps 737 mmHg 54%
    18:00 +10°C° 0 mm 2 mps 737 mmHg 61%
    19:00 +8°C° 0 mm 2 mps 737 mmHg 69%
    20:00 +8°C° 0 mm 2 mps 737 mmHg 73%
    21:00 +8°C° 0 mm 1 mps 738 mmHg 77%
    22:00 +7°C° 0 mm 1 mps 738 mmHg 80%
    23:00 +7°C° 0.1 mm 1 mps 738 mmHg 83%

    29 April, Monday

    Time Temperature Precipitation Wind Pressure Humidity
    00:00 +7°C° 0.1 mm 1 mps 738 mmHg 85%
    01:00 +7°C° 0.1 mm 1 mps 738 mmHg 87%
    02:00 +7°C° 0.1 mm 1 mps 737 mmHg 88%
    03:00 +6°C° 0.1 mm 1 mps 737 mmHg 90%
    04:00 +6°C° 0.1 mm 1 mps 737 mmHg 91%
    05:00 +7°C° 0.1 mm 1 mps 737 mmHg 88%
    06:00 +7°C° 0.1 mm 2 mps 737 mmHg 86%
    07:00 +8°C° 0.1 mm 2 mps 737 mmHg 83%
    08:00 +9°C° 0 mm 2 mps 737 mmHg 74%
    09:00 +12°C° 0 mm 2 mps 737 mmHg 66%
    10:00 +14°C° 0 mm 2 mps 736 mmHg 58%
    11:00 +14°C° 0 mm 2 mps 736 mmHg 56%
    12:00 +15°C° 0 mm 2 mps 736 mmHg 54%
    13:00 +15°C° 0 mm 2 mps 735 mmHg 53%
    14:00 +14°C° 0.1 mm 3 mps 735 mmHg 54%
    15:00 +14°C° 0.1 mm 3 mps 735 mmHg 56%
    16:00 +14°C° 0.1 mm 3 mps 735 mmHg 57%
    17:00 +12°C° 0.4 mm 3 mps 735 mmHg 67%
    18:00 +12°C° 0.4 mm 2 mps 735 mmHg 78%
    19:00 +9°C° 0.4 mm 2 mps 735 mmHg 88%
    20:00 +9°C° 0.3 mm 2 mps 735 mmHg 90%
    21:00 +8°C° 0.3 mm 2 mps 736 mmHg 92%
    22:00 +8°C° 0.3 mm 2 mps 736 mmHg 95%
    23:00 +8°C° 0.1 mm 2 mps 736 mmHg 95%

    30 April, Tuesday

    Time Temperature Precipitation Wind Pressure Humidity
    00:00 +7°C° 0.1 mm 2 mps 735 mmHg 95%
    01:00 +7°C° 0.1 mm 3 mps 735 mmHg 95%
    02:00 +7°C° 0.1 mm 3 mps 735 mmHg 95%
    03:00 +7°C° 0.1 mm 3 mps 735 mmHg 94%
    04:00 +7°C° 0.1 mm 3 mps 735 mmHg 94%
    05:00 +7°C° 0.3 mm 3 mps 735 mmHg 93%
    06:00 +6°C° 0.3 mm 4 mps 735 mmHg 92%
    07:00 +7°C° 0.3 mm 4 mps 734 mmHg 91%
    08:00 +7°C° 0.4 mm 4 mps 734 mmHg 90%
    09:00 +8°C° 0.4 mm 5 mps 734 mmHg 88%
    10:00 +8°C° 0.4 mm 5 mps 734 mmHg 87%
    11:00 +9°C° 0.3 mm 5 mps 734 mmHg 85%
    12:00 +9°C° 0.3 mm 5 mps 734 mmHg 83%
    13:00 +9°C° 0.3 mm 5 mps 734 mmHg 81%
    14:00 +10°C° 0.6 mm 4 mps 734 mmHg 84%
    15:00 +10°C° 0.6 mm 3 mps 734 mmHg 86%
    16:00 +10°C° 0.6 mm 2 mps 734 mmHg 88%
    17:00 +10°C° 0.4 mm 2 mps 734 mmHg 90%
    18:00 +9°C° 0.4 mm 2 mps 734 mmHg 92%
    19:00 +10°C° 0.4 mm 1 mps 734 mmHg 94%
    20:00 +10°C° 0.2 mm 1 mps 734 mmHg 94%
    21:00 +10°C° 0.2 mm 1 mps 735 mmHg 94%
    22:00 +10°C° 0.2 mm 1 mps 735 mmHg 94%
    23:00 +9°C° 0.1 mm 1 mps 735 mmHg 95%

    1 May, Wednesday

    Time Temperature Precipitation Wind Pressure Humidity
    00:00 +9°C° 0.1 mm 1 mps 735 mmHg 95%
    01:00 +9°C° 0.1 mm 1 mps 735 mmHg 95%
    02:00 +9°C° 0 mm 1 mps 735 mmHg 95%
    03:00 +9°C° 0 mm 1 mps 735 mmHg 95%
    04:00 +9°C° 0 mm 1 mps 735 mmHg 96%
    05:00 +9°C° 0.1 mm 1 mps 735 mmHg 94%
    06:00 +10°C° 0.1 mm 1 mps 735 mmHg 93%
    07:00 +11°C° 0.1 mm 1 mps 735 mmHg 92%
    08:00 +11°C° 0.1 mm 1 mps 735 mmHg 88%
    09:00 +12°C° 0.1 mm 1 mps 734 mmHg 84%
    10:00 +13°C° 0.1 mm 1 mps 734 mmHg 80%
    11:00 +15°C° 0 mm 1 mps 734 mmHg 71%
    12:00 +18°C° 0 mm 1 mps 734 mmHg 63%
    13:00 +20°C° 0 mm 1 mps 734 mmHg 54%
    14:00 +19°C° 0 mm 1 mps 733 mmHg 53%
    15:00 +19°C° 0 mm 1 mps 733 mmHg 53%
    16:00 +17°C° 0 mm 0 mps 733 mmHg 52%
    17:00 +16°C° 0 mm 1 mps 733 mmHg 60%
    18:00 +14°C° 0 mm 1 mps 732 mmHg 68%
    19:00 +12°C° 0 mm 1 mps 732 mmHg 75%
    20:00 +11°C° 0 mm 1 mps 733 mmHg 79%
    21:00 +11°C° 0 mm 1 mps 733 mmHg 82%
    22:00 +10°C° 0 mm 1 mps 733 mmHg 85%
    23:00 +9°C° 0 mm 1 mps 733 mmHg 86%
    Show more